Satellite: GO-32
Catalog number: 25397
Epoch time:      08332.01164181
Element set:     757
Inclination:      098.3478 deg
RA of node:       358.9906 deg
Eccentricity:    0.0002039
Arg of perigee:   109.9751 deg
Mean anomaly:     250.1644 deg
Mean motion:   14.23150842 rev/day
Decay rate:      -1.39e-06 rev/day^2
Epoch rev:           53937
Checksum:              316

Satellite: NO-44
Catalog number: 26931
Epoch time:      08332.16142428
Element set:      36
Inclination:      067.0524 deg
RA of node:       224.8079 deg
Eccentricity:    0.0006540
Arg of perigee:   255.1211 deg
Mean anomaly:     104.9173 deg
Mean motion:   14.29539134 rev/day
Decay rate:       -5.3e-07 rev/day^2
Epoch rev:           37370
Checksum:              276

Satellite: SO-50
Catalog number: 27607
Epoch time:      08329.27280826
Element set:     752
Inclination:      064.5594 deg
RA of node:       287.4455 deg
Eccentricity:    0.0084175
Arg of perigee:   248.1621 deg
Mean anomaly:     111.0452 deg
Mean motion:   14.71398009 rev/day
Decay rate:        9.1e-07 rev/day^2
Epoch rev:           31852
Checksum:              311

Satellite: CO-55
Catalog number: 27844
Epoch time:      08331.71372129
Element set:     450
Inclination:      098.7165 deg
RA of node:       337.7325 deg
Eccentricity:    0.0010269
Arg of perigee:   013.1283 deg
Mean anomaly:     347.0149 deg
Mean motion:   14.20608464 rev/day
Decay rate:        2.7e-07 rev/day^2
Epoch rev:           28051
Checksum:              292

Satellite: CO-57
Catalog number: 27848
Epoch time:      08331.59288064
Element set:     401
Inclination:      098.7168 deg
RA of node:       336.6839 deg
Eccentricity:    0.0010320
Arg of perigee:   015.3749 deg
Mean anomaly:     344.7728 deg
Mean motion:   14.20414953 rev/day
Decay rate:        1.8e-07 rev/day^2
Epoch rev:           28046
Checksum:              323

Satellite: AO-51
Catalog number: 28375
Epoch time:      08331.92145451
Element set:     253
Inclination:      098.0603 deg
RA of node:       347.2592 deg
Eccentricity:    0.0085069
Arg of perigee:   019.5075 deg
Mean anomaly:     340.9337 deg
Mean motion:   14.40625769 rev/day
Decay rate:        1.7e-07 rev/day^2
Epoch rev:           23183
Checksum:              309

Satellite: CO-56
Catalog number: 28941
Epoch time:      08332.48461418
Element set:     589
Inclination:      098.1217 deg
RA of node:       106.7342 deg
Eccentricity:    0.0137124
Arg of perigee:   164.1998 deg
Mean anomaly:     196.3694 deg
Mean motion:   15.66077361 rev/day
Decay rate:     5.8358e-04 rev/day^2
Epoch rev:           15551
Checksum:              350

Satellite: CP3
Catalog number: 31128
Epoch time:      08331.07288797
Element set:     491
Inclination:      098.0220 deg
RA of node:       027.4975 deg
Eccentricity:    0.0102747
Arg of perigee:   193.5490 deg
Mean anomaly:     166.2948 deg
Mean motion:   14.51994960 rev/day
Decay rate:       -4.7e-07 rev/day^2
Epoch rev:            8542
Checksum:              327

Satellite: CP4
Catalog number: 31132
Epoch time:      08331.16534127
Element set:     468
Inclination:      098.0236 deg
RA of node:       030.5511 deg
Eccentricity:    0.0085772
Arg of perigee:   184.5021 deg
Mean anomaly:     175.5415 deg
Mean motion:   14.55160743 rev/day
Decay rate:       -3.0e-08 rev/day^2
Epoch rev:            8550
Checksum:              266

Satellite: CO-65
Catalog number: 32785
Epoch time:      08332.44373972
Element set:     221
Inclination:      097.9750 deg
RA of node:       031.7851 deg
Eccentricity:    0.0014480
Arg of perigee:   330.7311 deg
Mean anomaly:     029.3094 deg
Mean motion:   14.81419846 rev/day
Decay rate:       1.37e-06 rev/day^2
Epoch rev:            3157
Checksum:              303

/EX
SB KEPS @ AMSAT  $ORB08332.W
Orbital Elements  08332.WEATHER

HR AMSAT ORBITAL ELEMENTS FOR WEATHER SATELLITES
FROM WA5QGD FORT WORTH,TX November 27, 2008
Send Subscribe/unsubscribe to KEPS at 
http://www.amsat.org/mailman/listinfo/keps
BID: ORB08332.W
TO ALL RADIO AMATEURS BT

Satellite: NOAA-10
Catalog number: 16969
Epoch time:      08332.48484862
Element set:     386
Inclination:      098.7111 deg
RA of node:       354.0402 deg
Eccentricity:    0.0013126
Arg of perigee:   066.3614 deg
Mean anomaly:     293.8945 deg
Mean motion:   14.27373840 rev/day
Decay rate:       -1.0e-08 rev/day^2
Epoch rev:           15473
Checksum:              306

Satellite: NOAA-11
Catalog number: 19531
Epoch time:      08331.88764319
Element set:     411
Inclination:      098.7944 deg
RA of node:       058.9093 deg
Eccentricity:    0.0011343
Arg of perigee:   328.8733 deg
Mean anomaly:     031.1766 deg
Mean motion:   14.14881105 rev/day
Decay rate:      -1.74e-06 rev/day^2
Epoch rev:            4091
Checksum:              303

Satellite: NOAA-12
Catalog number: 21263
Epoch time:      08331.54741317
Element set:     921
Inclination:      098.7715 deg
RA of node:       333.5306 deg
Eccentricity:    0.0012938
Arg of perigee:   018.0434 deg
Mean anomaly:     342.1202 deg
Mean motion:   14.25555845 rev/day
Decay rate:        2.6e-07 rev/day^2
Epoch rev:           91152
Checksum:              274

